CAPE
0 0 0 0 0 0 0 0 0 0 0 0 0 0 0 0 0 0 0 0 0 0
0 0 0 0 0 0 0 0 0 0 0 0 0 0 0 0 0 0 0 0 0 0
0 0 0 0 0 0 0 0 0 0 0 0 0 0 1 1 5 1 0 0 0 0
0 0 0 0 0 0 0 0 0 0 0 0 0 0 0 0 0 0 1 1 0 0
0 0 0 0 0 0 0 0 0 0 0 0 0 0 0 1 0 0 1 1 0 0
0 0 0 0 0 0 0 0 0 0 0 0 0 0 0 0 0 0 0 0 2 0
0 0 0 0 0 0 0 0 0 0 0 0 0 0 0 0 0 0 0 0 2 3
0 0 0 0 0 0 0 0 0 0 0 0 0 0 0 0 0 0 0 0 0 2
0 0 0 0 0 0 0 0 0 0 0 0 0 0 4 11 1 0 1 1 0 0
0 0 0 0 0 0 0 0 0 0 0 0 0 1 1 6 6 1 2 3 5 5
0 0 0 0 0 0 0 0 0 0 0 0 0 2 3 10 4 0 0 1 0 2
0 0 0 0 0 0 0 0 0 0 0 0 0 1 4 8 1 0 0 0 2 1
0 0 0 0 0 0 0 0 0 0 0 0 0 0 3 5 0 0 0 0 1 2
0 0 0 0 0 0 0 0 0 0 0 0 0 0 2 4 1 1 1 0 1 3
CIN
-0 -0 -0 -0 -0 -0 -0 -0 -0 -0 -0 -0 -0 -0 -0 -0 -0 -0 -0 -0 -0 -0
-0 -0 -0 -0 -0 -0 -0 -0 -0 -0 -0 -0 -0 -0 -0 -0 -0 -0 -0 -0 -0 -0
-0 -0 -0 -0 -0 -0 -0 -0 -0 -0 -0 -0 -0 -0 -0 -0 -0 -2 -0 -0 -0 -0
-0 -0 -0 -0 -0 -0 -0 -0 -0 -0 -0 -0 -0 -0 -0 -2 -0 -0 -3 -1 -0 -0
-0 -0 -0 -0 -0 -0 -0 -0 -0 -0 -0 -0 -0 -0 -0 -1 -0 -0 -2 -1 -0 -0
-0 -0 -0 -0 -0 -0 -0 -0 -0 -0 -0 -0 -0 -0 -0 -0 -0 -0 -0 -5 -1 -0
-0 -0 -0 -0 -0 -0 -0 -0 -0 -0 -0 -0 -0 -0 -0 -0 -0 -0 -0 -9 -5 -2
-0 -0 -0 -0 -0 -0 -0 -0 -0 -0 -0 -0 -0 -0 -0 -0 -0 -0 -8 -12 -7 -6
-0 -0 -0 -0 -0 -0 -0 -0 -0 -0 -0 -0 -0 -0 -0 -1 -2 -0 -0 -2 -0 -0
-0 -0 -0 -0 -0 -0 -0 -0 -0 -0 -0 -0 -0 -0 -0 -0 -0 -0 -1 -1 -0 -0
-0 -0 -0 -0 -0 -0 -0 -0 -0 -0 -0 -0 -0 -0 -1 -0 -0 -0 -0 -0 -0 -1
-0 -0 -0 -0 -0 -0 -0 -0 -0 -0 -0 -0 -0 -0 -1 -0 -0 -0 -0 -0 -1 -1
-0 -0 -0 -0 -0 -0 -0 -0 -1 -1 -0 -0 -0 -0 -1 -1 -0 -0 -0 -0 -0 -0
-0 -0 -0 -0 -0 -0 -0 -0 -0 -0 -0 -0 -0 -0 -1 -1 -2 -1 -1 -1 -1 -0
Wind_Speed
44 44 43 41 42 39 38 38 36 36 37 38 37 36 33 27 26 26 31 36 37 37
43 43 42 41 38 37 37 37 37 37 37 38 38 35 35 31 23 19 28 35 36 36
42 41 41 39 38 37 36 36 37 37 39 39 37 37 35 33 29 23 17 31 33 34
41 41 40 38 37 36 35 36 37 38 40 41 39 37 37 32 30 30 27 21 35 35
41 41 39 37 36 36 37 37 39 39 41 41 40 38 38 36 35 32 29 28 23 33
40 40 38 37 38 39 39 40 41 43 42 43 42 41 38 38 36 34 33 30 29 32
40 39 38 39 39 39 40 42 43 42 44 44 43 42 40 38 37 35 33 32 31 31
40 40 40 40 40 41 42 42 43 44 44 44 42 40 39 38 37 35 34 33 33 33
41 42 42 42 42 42 41 41 41 41 42 44 41 41 42 41 39 37 36 36 34 34
44 44 44 43 43 42 41 41 40 40 40 41 41 42 41 40 39 37 37 36 35 34
45 45 45 44 43 41 40 39 39 41 41 41 40 41 41 40 39 38 38 37 36 35
45 45 45 44 43 40 39 38 38 39 42 41 41 40 39 38 36 36 37 36 35 34
44 45 44 42 40 38 36 34 35 41 40 37 38 36 36 36 34 35 35 34 33 35
44 43 41 39 37 34 31 26 16 30 30 29 28 29 32 34 34 34 34 33 32 32
Wind_Direction
342 341 341 340 339 340 339 338 339 337 332 327 323 321 322 327 325 320 305 289 281 276
342 342 341 340 340 339 338 337 336 334 331 325 320 320 318 320 327 326 312 293 284 277
342 342 341 341 339 339 338 337 335 333 329 323 321 317 316 316 319 324 324 300 287 280
342 341 341 340 340 339 338 337 335 332 327 321 318 316 311 315 317 316 315 317 289 282
341 341 341 341 340 339 337 335 332 330 325 320 317 314 306 305 307 310 312 308 307 285
341 342 342 341 339 336 334 332 328 323 320 316 312 309 305 302 301 302 303 304 299 291
342 342 341 339 337 335 333 329 326 323 318 313 308 304 302 300 298 298 299 299 295 291
342 341 340 338 337 334 332 329 325 321 317 311 308 305 300 297 295 295 296 294 291 287
341 340 340 338 336 335 333 331 328 324 319 312 309 303 294 291 291 291 290 288 288 284
341 340 339 338 337 336 334 332 329 325 321 315 309 301 292 287 287 286 286 285 283 281
342 341 340 339 338 337 336 333 331 325 319 313 309 297 290 286 284 282 282 280 279 277
343 341 340 340 339 338 337 335 332 326 316 308 300 290 285 285 285 283 280 280 277 275
343 342 342 341 341 341 339 338 335 321 291 283 283 277 276 281 286 283 282 280 278 274
345 344 344 344 344 344 343 343 300 278 275 271 266 265 269 272 277 281 281 280 279 278